{"data":{"norad_id":58116,"intl_designator":"2023-161V","name":"STARLINK-30493","alt_names":[],"object_type":"PAYLOAD","status":"ACTIVE","operator":null,"country":"US","launch_date":"2023-10-21","launch_site_code":"AFWTR","launch_vehicle":null,"mission":null,"orbit_class":"UNKNOWN","rcs_meters":null,"size_class":null,"mass_kg":null,"dimensions":null,"purposes":["comms"],"wikipedia_slug":null,"has_3d_model":false,"image_url":null,"decayed_at":null,"tle_current":{"epoch":"2026-05-25T01:43:30.090720Z","epoch_age_seconds":66070,"freshness":"FRESH","line1":"1 58116U 23161V   26145.07187605 -.00000984  00000+0 -21121-4 0  9999","line2":"2 58116  53.1593 170.9168 0001284  78.4870 281.6275 15.30184153146115","mean_motion":15.30184153,"eccentricity":0.0001284,"inclination_deg":53.1593,"raan_deg":170.9168,"arg_perigee_deg":78.487,"mean_anomaly_deg":281.6275,"bstar":-2.1121e-5,"rev_number":14611,"period_min":94.106320286798,"perigee_km":474.38240963206,"apogee_km":476.14236259441,"semimajor_km":6853.3993861132,"source":"CELESTRAK","updated_at":"2026-05-25T13:38:18.530101Z"}}}